Overview Statistics Trail Chart Weather Telemetry Raw packets
 

This is the latest recevied weather packets stored in our database for station/object KB9HUO. If no packets are shown the sender has not sent any weather packets the latest 10 day(s).

<< 44 45 46 47 48 49 50 >>
Time Temp. Humidity Pressure Rain* Wind** Luminosity Snow
1788369569 34.44° C 56% 1019.2 hPa 0 mm - 703 W/m² -
1788369265 34.44° C 58% 1019.3 hPa 0 mm - 698 W/m² -
1788368961 33.89° C 58% 1019.2 hPa 0 mm - 699 W/m² -
1788368656 33.89° C 58% 1019.2 hPa 0 mm - 701 W/m² -
1788368352 33.89° C 59% 1019.4 hPa 0 mm - 696 W/m² -
1788368051 33.89° C 60% 1019.4 hPa 0 mm - 692 W/m² -
1788367746 33.89° C 58% 1019.4 hPa 0 mm - 686 W/m² -
1788367441 33.89° C 59% 1019.5 hPa 0 mm - 682 W/m² -
1788367140 33.89° C 58% 1019.6 hPa 0 mm - 677 W/m² -
1788366834 33.89° C 56% 1019.7 hPa 0 mm - 670 W/m² -
1788366533 33.89° C 58% 1019.6 hPa 0 mm - 661 W/m² -
1788366228 33.89° C 58% 1019.6 hPa 0 mm - 653 W/m² -
1788365928 33.33° C 58% 1019.7 hPa 0 mm - 647 W/m² -
1788365623 33.33° C 60% 1019.7 hPa 0 mm - 642 W/m² -
1788365320 33.89° C 59% 1019.8 hPa 0 mm - 635 W/m² -
1788365015 33.33° C 59% 1019.8 hPa 0 mm - 625 W/m² -
1788364713 33.89° C 59% 1019.7 hPa 0 mm - 615 W/m² -
1788364412 33.33° C 61% 1019.7 hPa 0 mm - 604 W/m² -
1788364107 33.33° C 62% 1019.8 hPa 0 mm - 592 W/m² -
1788363803 32.78° C 61% 1020 hPa 0 mm - 585 W/m² -
1788363501 32.78° C 61% 1019.8 hPa 0 mm - 574 W/m² -
1788363201 32.22° C 63% 1019.8 hPa 0 mm - 563 W/m² -
1788362897 32.78° C 62% 1019.8 hPa 0 mm - 552 W/m² -
1788362593 32.22° C 64% 1019.8 hPa 0 mm - 494 W/m² -
1788362288 32.22° C 64% 1020 hPa 0 mm - 168 W/m² -

* Rain latest hour (hover to see other rain measurements)
** Current wind speed in m/s (hover to see current wind gust speed)